User: anonymous   Login
Location: Arroyo Grande
(40.2671°N, 4.2512°W)
Time: 13:31:29
(UTC+00:00)
Language:

Cosmos 1536 Rocket - Orbit

View from above orbital plane
View from above orbital plane
View from above satellite
View from above satellite

Ground track
Ground track

The orbit data is extracted from the following two-line orbital elements,

1 14700U 84013B   23160.75322685  .00000545  00000-0  62744-4 0  9999
2 14700  82.5368 276.3737 0018686 331.6709 142.1669 14.83840493103602
Epoch (UTC): 09 June 2023 18:04:38
Eccentricity: 0.0018686
inclination: 82.5368°
perigee height: 604 km
apogee height: 630 km
right ascension of ascending node: 276.3737°
argument of perigee: 331.6709°
revolutions per day: 14.83840493
mean anomaly at epoch: 142.1669°
orbit number at epoch: 10360

The dashed part of the orbit path shows where the satellite is in the earth's shadow,  

DLR